Appleton, MN

7:15 PM CDT on June 23, 2017 (GMT -0500)
Appleton Municipal

Weather History for KAQP - October, 2013

Change the Weather History Date:

Saturday, October 19, 2013

  Actual Average Record
Temperature  
Mean Temperature 38 °F -  
Max Temperature 44 °F 54 °F 89 °F (2000)
Min Temperature 32 °F 33 °F 21 °F (2006)
Degree Days  
Heating Degree Days 27    
Moisture  
Dew Point 31 °F    
Average Humidity 75    
Maximum Humidity 93    
Minimum Humidity 49    
Precipitation  
Precipitation 0.01 in - - ()
Sea Level Pressure  
Sea Level Pressure 29.77 in    
Wind  
Wind Speed 9 mph (West)    
Max Wind Speed 23 mph    
Max Gust Speed 28 mph    
Visibility 10 miles    
Events Rain    
Averages and records for this station are not official NWS values.
T = Trace of Precipitation, MM = Missing Value Source: NWS Daily Summary

Daily Weather History Graph

Daily Weather History Graph

Search for Another Location

Airport or City:

Trip Planner

Search our weather history database for the weather conditions in past years. The results will help you decide how hot, cold, wet, or windy it might be!

Date:

Astronomy

Oct. 19, 2013 Rise Set
Actual Time 7:45 AM CDT 6:31 PM CDT
Civil Twilight 7:15 AM CDT 7:01 PM CDT
Nautical Twilight 6:41 AM CDT 7:35 PM CDT
Astronomical Twilight 6:07 AM CDT 8:09 PM CDT
Moon 6:56 PM CDT (10/19) 8:27 AM CDT (10/19)
Length of Visible Light 11h 45m
Length of Day
10h 45m
Waxing Gibbous, 99% of the Moon is Illuminated
Oct 19
Waxing Gibbous
Oct 26
Last Quarter
Nov 3
New
Nov 9
First Quarter
Nov 17
Full

Hourly Weather History & Observations

Time (CDT) Temp. Windchill Dew Point Humidity Pressure Visibility Wind Dir Wind Speed Gust Speed Precip Events Conditions
12:13 AM 37.4 °F 32.8 °F 33.8 °F 87% 29.82 in 10.0 mi SW 5.8 mph - N/A   Overcast
12:33 AM 37.4 °F 32.1 °F 33.8 °F 87% 29.82 in 10.0 mi SW 6.9 mph - N/A   Scattered Clouds
12:53 AM 35.6 °F 31.7 °F 33.8 °F 93% 29.80 in 10.0 mi SW 4.6 mph - N/A   Scattered Clouds
1:13 AM 35.6 °F 30.7 °F 33.8 °F 93% 29.79 in 10.0 mi SW 5.8 mph - N/A   Scattered Clouds
1:34 AM 35.6 °F 30.7 °F 33.8 °F 93% 29.79 in 10.0 mi SW 5.8 mph - N/A   Scattered Clouds
1:53 AM 35.6 °F 29.9 °F 33.8 °F 93% 29.78 in 10.0 mi SW 6.9 mph - N/A   Scattered Clouds
2:13 AM 35.6 °F 29.2 °F 33.8 °F 93% 29.78 in 10.0 mi SW 8.1 mph - N/A   Scattered Clouds
2:34 AM 35.6 °F 29.9 °F 33.8 °F 93% 29.77 in 10.0 mi SW 6.9 mph - N/A   Mostly Cloudy
2:53 AM 37.4 °F 31.4 °F 33.8 °F 87% 29.76 in 10.0 mi WSW 8.1 mph - N/A   Mostly Cloudy
3:14 AM 37.4 °F 30.8 °F 35.6 °F 93% 29.76 in 10.0 mi WSW 9.2 mph - N/A   Mostly Cloudy
3:33 AM 39.2 °F 33.6 °F 35.6 °F 87% 29.75 in 10.0 mi West 8.1 mph - N/A   Overcast
3:53 AM 39.2 °F 34.2 °F 35.6 °F 87% 29.74 in 10.0 mi SW 6.9 mph - 0.01 in Rain Light Rain
4:13 AM 39.2 °F 34.2 °F 35.6 °F 87% 29.73 in 10.0 mi SW 6.9 mph - N/A   Overcast
4:34 AM 39.2 °F 34.2 °F 35.6 °F 87% 29.73 in 10.0 mi SW 6.9 mph - N/A   Overcast
4:53 AM 39.2 °F 33.6 °F 35.6 °F 87% 29.72 in 10.0 mi WSW 8.1 mph - N/A   Mostly Cloudy
5:13 AM 39.2 °F 33.0 °F 35.6 °F 87% 29.72 in 10.0 mi WSW 9.2 mph - N/A   Mostly Cloudy
5:33 AM 37.4 °F 32.1 °F 35.6 °F 93% 29.71 in 10.0 mi SW 6.9 mph - N/A   Scattered Clouds
5:53 AM 37.4 °F 32.8 °F 35.6 °F 93% 29.71 in 10.0 mi WSW 5.8 mph - N/A   Mostly Cloudy
6:13 AM 37.4 °F 32.8 °F 35.6 °F 93% 29.71 in 10.0 mi WSW 5.8 mph - N/A   Scattered Clouds
6:33 AM 37.4 °F 31.4 °F 35.6 °F 93% 29.71 in 10.0 mi WSW 8.1 mph - N/A   Scattered Clouds
6:53 AM 39.2 °F 33.6 °F 35.6 °F 87% 29.71 in 10.0 mi WSW 8.1 mph - N/A   Mostly Cloudy
7:14 AM 39.2 °F 34.2 °F 37.4 °F 93% 29.71 in 10.0 mi West 6.9 mph - N/A   Overcast
7:33 AM 39.2 °F 34.2 °F 35.6 °F 87% 29.71 in 10.0 mi WSW 6.9 mph - N/A   Overcast
7:53 AM 39.2 °F 34.2 °F 37.4 °F 93% 29.71 in 10.0 mi West 6.9 mph - N/A Rain Light Rain
8:13 AM 39.2 °F 33.0 °F 37.4 °F 93% 29.71 in 10.0 mi West 9.2 mph - N/A   Overcast
9:13 AM 42.8 °F 35.4 °F 37.4 °F 81% 29.73 in 10.0 mi NW 15.0 mph 21.9 mph N/A   Overcast
9:33 AM 42.8 °F 35.8 °F 37.4 °F 81% 29.73 in 10.0 mi NW 13.8 mph 17.3 mph N/A   Overcast
9:54 AM 42.8 °F 34.8 °F 37.4 °F 81% 29.74 in 10.0 mi NW 17.3 mph - N/A   Scattered Clouds
10:13 AM 42.8 °F 34.3 °F 35.6 °F 76% 29.75 in 10.0 mi NNW 19.6 mph 25.3 mph N/A   Mostly Cloudy
10:33 AM 42.8 °F 34.3 °F 35.6 °F 76% 29.75 in 10.0 mi NNW 19.6 mph - N/A   Scattered Clouds
10:53 AM 42.8 °F 34.3 °F 30.2 °F 61% 29.75 in 10.0 mi NNW 19.6 mph 24.2 mph N/A   Scattered Clouds
11:13 AM 44.6 °F 36.9 °F 28.4 °F 53% 29.76 in 10.0 mi NW 18.4 mph - N/A   Scattered Clouds
11:33 AM 42.8 °F 35.8 °F 28.4 °F 57% 29.76 in 10.0 mi NW 13.8 mph 24.2 mph N/A   Mostly Cloudy
11:53 AM 41.0 °F 31.6 °F 26.6 °F 57% 29.77 in 10.0 mi NW 20.7 mph 24.2 mph N/A   Mostly Cloudy
12:13 PM 41.0 °F 32.2 °F 24.8 °F 53% 29.77 in 10.0 mi NW 18.4 mph 25.3 mph N/A   Mostly Cloudy
12:33 PM 41.0 °F 31.9 °F 24.8 °F 53% 29.78 in 10.0 mi NW 19.6 mph 26.5 mph N/A   Mostly Cloudy
12:54 PM 42.8 °F 33.5 °F 24.8 °F 49% 29.78 in 10.0 mi NNW 23.0 mph 27.6 mph N/A   Mostly Cloudy
1:13 PM 42.8 °F 34.5 °F 24.8 °F 49% 29.78 in 10.0 mi NNW 18.4 mph 24.2 mph N/A   Overcast
1:33 PM 42.8 °F 34.3 °F 24.8 °F 49% 29.78 in 10.0 mi NNW 19.6 mph - N/A   Overcast
1:53 PM 42.8 °F 34.5 °F 24.8 °F 49% 29.78 in 10.0 mi NNW 18.4 mph 25.3 mph N/A   Overcast
2:13 PM 42.8 °F 35.1 °F 24.8 °F 49% 29.78 in 10.0 mi NW 16.1 mph 21.9 mph N/A   Overcast
2:33 PM 42.8 °F 35.1 °F 24.8 °F 49% 29.78 in 10.0 mi NNW 16.1 mph - N/A   Overcast
2:54 PM 42.8 °F 36.6 °F 24.8 °F 49% 29.79 in 10.0 mi NNW 11.5 mph - N/A   Overcast
3:13 PM 42.8 °F 35.1 °F 24.8 °F 49% 29.79 in 10.0 mi NNW 16.1 mph 19.6 mph N/A   Overcast
3:33 PM 44.6 °F 38.8 °F 26.6 °F 49% 29.79 in 10.0 mi NNW 11.5 mph 19.6 mph N/A   Overcast
3:53 PM 44.6 °F 37.8 °F 26.6 °F 49% 29.79 in 10.0 mi NNW 15.0 mph - N/A   Overcast
4:13 PM 44.6 °F 38.4 °F 26.6 °F 49% 29.79 in 10.0 mi North 12.7 mph 19.6 mph N/A   Overcast
4:33 PM 44.6 °F 39.7 °F 26.6 °F 49% 29.79 in 10.0 mi NNW 9.2 mph - N/A   Overcast
4:53 PM 44.6 °F 38.1 °F 26.6 °F 49% 29.79 in 10.0 mi NW 13.8 mph - N/A   Overcast
5:13 PM 44.6 °F 39.2 °F 26.6 °F 49% 29.79 in 10.0 mi NNW 10.4 mph - N/A   Mostly Cloudy
5:34 PM 42.8 °F 37.5 °F 26.6 °F 53% 29.80 in 10.0 mi NNW 9.2 mph - N/A   Scattered Clouds
5:53 PM 42.8 °F 40.1 °F 28.4 °F 57% 29.80 in 10.0 mi NW 4.6 mph - N/A   Clear
6:13 PM 39.2 °F 35.0 °F 28.4 °F 65% 29.80 in 10.0 mi NNW 5.8 mph - N/A   Clear
6:33 PM 39.2 °F 37.0 °F 28.4 °F 65% 29.80 in 10.0 mi NNW 3.5 mph - N/A   Clear
6:54 PM 35.6 °F - 28.4 °F 75% 29.80 in 10.0 mi Calm Calm - N/A   Clear
7:13 PM 35.6 °F - 28.4 °F 75% 29.81 in 10.0 mi Calm Calm - N/A   Clear
7:33 PM 35.6 °F - 28.4 °F 75% 29.81 in 10.0 mi Calm Calm - N/A   Clear
7:53 PM 33.8 °F - 28.4 °F 81% 29.80 in 10.0 mi Calm Calm - N/A   Clear
8:13 PM 33.8 °F - 30.2 °F 87% 29.80 in 10.0 mi Calm Calm - N/A   Clear
8:33 PM 33.8 °F 30.8 °F 30.2 °F 87% 29.80 in 10.0 mi South 3.5 mph - N/A   Clear
8:53 PM 32.0 °F - 28.4 °F 87% 29.80 in 10.0 mi Calm Calm - N/A   Clear
9:13 PM 32.0 °F - 28.4 °F 87% 29.79 in 10.0 mi Calm Calm - N/A   Clear
9:34 PM 32.0 °F 28.7 °F 30.2 °F 93% 29.79 in 10.0 mi SSE 3.5 mph - N/A   Clear
9:53 PM 33.8 °F - 28.4 °F 81% 29.79 in 10.0 mi Calm Calm - N/A   Clear
10:13 PM 33.8 °F 30.8 °F 30.2 °F 87% 29.79 in 10.0 mi South 3.5 mph - N/A   Clear
10:34 PM 33.8 °F 29.6 °F 30.2 °F 87% 29.78 in 10.0 mi SSE 4.6 mph - N/A   Scattered Clouds
10:53 PM 35.6 °F 32.8 °F 30.2 °F 81% 29.78 in 10.0 mi SSE 3.5 mph - N/A   Mostly Cloudy
11:13 PM 35.6 °F 32.8 °F 30.2 °F 81% 29.77 in 10.0 mi SE 3.5 mph - N/A   Overcast
11:33 PM 35.6 °F 32.8 °F 32.0 °F 87% 29.76 in 10.0 mi SE 3.5 mph - N/A   Overcast
11:53 PM 35.6 °F 32.8 °F 30.2 °F 81% 29.76 in 10.0 mi SE 3.5 mph - N/A   Overcast